Hourly Weather Barnowko

Today, 8 May, Saturday

Time Temperature Precipitation Wind Pressure Humidity
00:00 +1°C° 0 mm 3 mps 757 mmHg 94%
01:00 +1°C° 0 mm 3 mps 757 mmHg 94%
02:00 +1°C° 0 mm 3 mps 758 mmHg 94%
03:00 0°C° 0 mm 3 mps 758 mmHg 95%
04:00 0°C° 0 mm 3 mps 758 mmHg 95%
05:00 0°C° 0 mm 4 mps 758 mmHg 93%
06:00 +3°C° 0 mm 4 mps 759 mmHg 90%
07:00 +4°C° 0 mm 4 mps 759 mmHg 87%
08:00 +6°C° 0 mm 5 mps 759 mmHg 77%
09:00 +7°C° 0 mm 5 mps 759 mmHg 67%
10:00 +9°C° 0 mm 5 mps 759 mmHg 57%
11:00 +10°C° 0 mm 5 mps 759 mmHg 52%
12:00 +11°C° 0 mm 4 mps 759 mmHg 48%
13:00 +12°C° 0 mm 4 mps 759 mmHg 44%
14:00 +12°C° 0 mm 4 mps 759 mmHg 43%
15:00 +13°C° 0 mm 3 mps 758 mmHg 42%
16:00 +13°C° 0 mm 3 mps 758 mmHg 41%
17:00 +13°C° 0 mm 2 mps 758 mmHg 47%
18:00 +10°C° 0 mm 2 mps 758 mmHg 53%
19:00 +10°C° 0 mm 1 mps 758 mmHg 58%
20:00 +9°C° 0 mm 2 mps 758 mmHg 58%
21:00 +8°C° 0 mm 2 mps 758 mmHg 58%
22:00 +8°C° 0 mm 3 mps 758 mmHg 57%
23:00 +8°C° 0 mm 3 mps 757 mmHg 58%

Tomorrow, 9 May, Sunday

Time Temperature Precipitation Wind Pressure Humidity
00:00 +7°C° 0 mm 4 mps 757 mmHg 58%
01:00 +7°C° 0 mm 4 mps 757 mmHg 59%
02:00 +7°C° 0 mm 4 mps 756 mmHg 59%
03:00 +8°C° 0 mm 5 mps 756 mmHg 59%
04:00 +8°C° 0 mm 5 mps 755 mmHg 60%
05:00 +9°C° 0 mm 5 mps 755 mmHg 62%
06:00 +9°C° 0 mm 5 mps 755 mmHg 64%
07:00 +11°C° 0 mm 4 mps 755 mmHg 66%
08:00 +13°C° 0 mm 5 mps 755 mmHg 63%
09:00 +15°C° 0 mm 5 mps 755 mmHg 59%
10:00 +17°C° 0 mm 5 mps 755 mmHg 56%
11:00 +19°C° 0 mm 5 mps 755 mmHg 54%
12:00 +21°C° 0 mm 5 mps 755 mmHg 51%
13:00 +22°C° 0 mm 5 mps 754 mmHg 48%
14:00 +22°C° 0 mm 5 mps 754 mmHg 50%
15:00 +23°C° 0 mm 5 mps 754 mmHg 51%
16:00 +23°C° 0 mm 5 mps 753 mmHg 52%
17:00 +21°C° 0 mm 4 mps 753 mmHg 58%
18:00 +19°C° 0 mm 4 mps 753 mmHg 64%
19:00 +18°C° 0 mm 3 mps 753 mmHg 71%
20:00 +17°C° 0 mm 3 mps 753 mmHg 73%
21:00 +15°C° 0 mm 4 mps 753 mmHg 76%
22:00 +14°C° 0 mm 4 mps 754 mmHg 78%
23:00 +13°C° 0 mm 4 mps 753 mmHg 80%

Day after tomorrow, 10 May, Monday

Time Temperature Precipitation Wind Pressure Humidity
00:00 +13°C° 0 mm 4 mps 753 mmHg 82%
01:00 +12°C° 0 mm 3 mps 753 mmHg 83%
02:00 +11°C° 0 mm 3 mps 753 mmHg 85%
03:00 +10°C° 0 mm 3 mps 753 mmHg 86%
04:00 +10°C° 0 mm 3 mps 753 mmHg 87%
05:00 +11°C° 0 mm 4 mps 753 mmHg 81%
06:00 +12°C° 0 mm 4 mps 753 mmHg 76%
07:00 +13°C° 0 mm 5 mps 752 mmHg 70%
08:00 +15°C° 0 mm 5 mps 752 mmHg 65%
09:00 +17°C° 0 mm 5 mps 752 mmHg 61%
10:00 +19°C° 0 mm 6 mps 752 mmHg 56%
11:00 +21°C° 0 mm 5 mps 752 mmHg 54%
12:00 +22°C° 0 mm 5 mps 752 mmHg 52%
13:00 +23°C° 0 mm 5 mps 751 mmHg 50%
14:00 +25°C° 0 mm 4 mps 752 mmHg 51%
15:00 +25°C° 0 mm 4 mps 752 mmHg 52%
16:00 +26°C° 0 mm 3 mps 752 mmHg 52%
17:00 +25°C° 0 mm 3 mps 752 mmHg 58%
18:00 +23°C° 0 mm 2 mps 752 mmHg 64%
19:00 +22°C° 0 mm 1 mps 752 mmHg 70%
20:00 +20°C° 0 mm 2 mps 753 mmHg 76%
21:00 +18°C° 0 mm 2 mps 753 mmHg 81%
22:00 +17°C° 0 mm 2 mps 753 mmHg 86%
23:00 +16°C° 0 mm 2 mps 753 mmHg 88%

11 May, Tuesday

Time Temperature Precipitation Wind Pressure Humidity
00:00 +14°C° 0 mm 3 mps 752 mmHg 90%
01:00 +14°C° 0 mm 3 mps 752 mmHg 92%
02:00 +13°C° 0 mm 3 mps 752 mmHg 93%
03:00 +13°C° 0 mm 3 mps 752 mmHg 94%
04:00 +13°C° 0 mm 3 mps 751 mmHg 95%
05:00 +14°C° 0 mm 3 mps 751 mmHg 90%
06:00 +16°C° 0 mm 3 mps 751 mmHg 86%
07:00 +17°C° 0 mm 3 mps 751 mmHg 81%
08:00 +19°C° 0 mm 3 mps 751 mmHg 75%
09:00 +20°C° 0 mm 3 mps 750 mmHg 69%
10:00 +22°C° 0 mm 3 mps 750 mmHg 64%
11:00 +24°C° 0 mm 2 mps 750 mmHg 61%
12:00 +25°C° 0 mm 2 mps 750 mmHg 58%
13:00 +26°C° 0 mm 2 mps 750 mmHg 55%
14:00 +25°C° 0 mm 3 mps 750 mmHg 61%
15:00 +24°C° 0 mm 3 mps 750 mmHg 67%
16:00 +22°C° 0 mm 3 mps 750 mmHg 73%
17:00 +20°C° 0 mm 3 mps 750 mmHg 77%
18:00 +19°C° 0 mm 3 mps 750 mmHg 82%
19:00 +18°C° 0 mm 3 mps 750 mmHg 87%
20:00 +17°C° 0 mm 3 mps 750 mmHg 88%
21:00 +17°C° 0 mm 2 mps 750 mmHg 89%
22:00 +16°C° 0 mm 2 mps 750 mmHg 90%
23:00 +15°C° 0.1 mm 2 mps 750 mmHg 92%

12 May, Wednesday

Time Temperature Precipitation Wind Pressure Humidity
00:00 +15°C° 0.1 mm 2 mps 750 mmHg 94%
01:00 +14°C° 0.1 mm 2 mps 749 mmHg 96%
02:00 +14°C° 0 mm 2 mps 749 mmHg 96%
03:00 +14°C° 0 mm 2 mps 749 mmHg 96%
04:00 +14°C° 0 mm 2 mps 749 mmHg 96%
05:00 +15°C° 0 mm 2 mps 749 mmHg 92%
06:00 +16°C° 0 mm 2 mps 749 mmHg 88%
07:00 +17°C° 0 mm 2 mps 749 mmHg 84%
08:00 +18°C° 0 mm 3 mps 749 mmHg 80%
09:00 +20°C° 0 mm 3 mps 749 mmHg 77%
10:00 +21°C° 0 mm 4 mps 750 mmHg 73%
11:00 +20°C° 0 mm 4 mps 750 mmHg 74%
12:00 +19°C° 0 mm 4 mps 750 mmHg 76%
13:00 +17°C° 0 mm 5 mps 751 mmHg 77%
14:00 +16°C° 0.1 mm 5 mps 751 mmHg 79%
15:00 +15°C° 0.1 mm 5 mps 751 mmHg 82%
16:00 +14°C° 0.1 mm 4 mps 751 mmHg 85%
17:00 +13°C° 0.2 mm 4 mps 752 mmHg 87%
18:00 +12°C° 0.2 mm 4 mps 752 mmHg 90%
19:00 +12°C° 0.2 mm 4 mps 752 mmHg 92%
20:00 +11°C° 0.6 mm 4 mps 752 mmHg 94%
21:00 +11°C° 0.6 mm 4 mps 752 mmHg 95%
22:00 +11°C° 0.6 mm 4 mps 752 mmHg 96%
23:00 +11°C° 0.5 mm 4 mps 752 mmHg 97%

13 May, Thursday

Time Temperature Precipitation Wind Pressure Humidity
00:00 +11°C° 0.5 mm 4 mps 752 mmHg 97%
01:00 +11°C° 0.5 mm 4 mps 751 mmHg 97%
02:00 +11°C° 0 mm 4 mps 751 mmHg 97%
03:00 +11°C° 0 mm 4 mps 751 mmHg 97%
04:00 +11°C° 0 mm 4 mps 751 mmHg 97%
05:00 +11°C° 0 mm 4 mps 751 mmHg 94%
06:00 +12°C° 0 mm 4 mps 751 mmHg 90%
07:00 +12°C° 0 mm 4 mps 752 mmHg 86%
08:00 +14°C° 0 mm 3 mps 751 mmHg 79%
09:00 +16°C° 0 mm 3 mps 751 mmHg 72%
10:00 +17°C° 0 mm 3 mps 751 mmHg 64%
11:00 +18°C° 0 mm 3 mps 751 mmHg 60%
12:00 +19°C° 0 mm 3 mps 751 mmHg 56%
13:00 +19°C° 0 mm 2 mps 751 mmHg 52%
14:00 +19°C° 0 mm 2 mps 751 mmHg 54%
15:00 +19°C° 0 mm 2 mps 751 mmHg 56%
16:00 +19°C° 0 mm 2 mps 750 mmHg 58%
17:00 +18°C° 0.1 mm 2 mps 751 mmHg 64%
18:00 +16°C° 0.1 mm 2 mps 751 mmHg 70%
19:00 +15°C° 0.1 mm 2 mps 751 mmHg 76%
20:00 +15°C° 0 mm 2 mps 751 mmHg 77%
21:00 +14°C° 0 mm 2 mps 751 mmHg 78%
22:00 +14°C° 0 mm 1 mps 751 mmHg 79%
23:00 +13°C° 0 mm 2 mps 751 mmHg 81%
Show more